CAPE
0 0 0 0 0 0 0 0 0 0 0 0 0 0 0 0 0 0 0 0 0 0 28 0 0 0 12 158 233 199 141 16 12 33 47 150 137 148 95 49 45 39 2 0 37
0 0 0 0 0 0 0 0 0 0 0 0 0 0 0 0 0 0 0 0 0 0 0 0 0 0 17 11 69 161 38 2 9 4 85 189 191 193 107 0 11 27 0 0 53
0 0 0 0 0 0 0 0 0 0 0 0 0 0 0 0 0 0 0 0 0 0 0 0 0 0 0 0 2 16 0 2 2 6 72 233 241 219 66 0 72 0 0 18 51
0 0 0 0 0 0 0 0 0 0 0 0 0 0 0 0 0 0 0 0 0 0 0 0 0 0 0 0 0 0 0 0 0 33 162 274 296 238 108 22 124 0 0 7 40
0 0 0 0 0 0 0 0 0 0 0 0 0 0 0 0 0 0 0 0 0 0 0 0 0 0 0 0 0 0 0 0 0 0 258 342 324 196 167 117 15 0 0 0 61
0 0 0 0 0 0 0 0 0 0 0 0 0 0 0 0 0 0 0 0 0 0 0 0 0 0 0 0 0 0 0 0 0 0 46 327 311 285 182 87 3 0 0 29 54
0 0 0 0 0 0 0 0 0 0 0 0 0 0 0 0 0 0 0 0 0 0 0 0 0 0 0 0 0 0 0 0 0 0 71 179 270 235 178 64 16 0 0 47 47
0 0 0 0 0 0 0 0 0 0 0 0 0 0 0 0 0 0 0 0 0 0 0 0 0 0 0 0 0 0 0 0 0 51 108 113 59 239 147 73 29 21 0 58 84
0 0 0 0 0 0 0 0 0 0 0 0 0 0 0 0 0 0 0 0 0 0 0 0 0 0 0 0 0 0 0 0 0 45 123 87 67 244 136 70 28 25 25 74 82
0 0 0 0 0 0 0 0 0 0 0 0 0 0 0 0 0 0 0 0 0 0 0 0 0 0 0 0 0 0 0 0 0 11 69 83 141 226 179 72 55 14 38 63 42
0 0 0 0 0 0 0 0 0 0 0 0 0 0 0 0 0 0 0 0 0 0 0 0 0 0 0 0 0 0 0 0 0 0 31 47 114 177 205 130 114 48 0 0 0
0 0 0 0 0 0 0 0 0 0 0 0 0 0 0 0 0 0 0 0 0 0 0 0 0 0 0 0 0 0 0 0 0 16 24 53 173 258 213 179 134 79 49 1 0
0 0 0 0 0 0 0 0 0 0 0 0 0 0 0 0 0 0 0 0 0 0 0 0 0 0 0 0 0 0 0 0 0 14 44 107 117 233 192 135 100 59 49 40 0
0 0 0 0 0 0 0 0 0 0 0 0 0 0 0 0 0 0 0 0 0 0 0 0 0 0 0 0 0 0 0 0 0 0 17 61 93 72 59 115 71 69 47 55 19
0 0 0 0 0 0 0 0 0 0 0 0 0 0 0 0 0 0 0 0 0 0 0 0 0 0 0 0 0 0 0 0 0 0 0 38 59 34 3 37 40 32 54 60 19
0 0 0 0 0 0 0 0 0 0 0 0 0 0 0 0 0 0 0 0 0 0 0 0 0 0 0 0 0 0 0 0 0 0 0 0 20 0 17 10 0 0 12 54 45
0 0 0 0 0 0 0 0 0 0 0 0 0 0 0 0 0 0 0 0 0 0 0 0 0 0 0 0 0 0 0 0 0 0 0 0 0 0 0 3 0 0 0 5 42
0 0 0 0 0 0 0 0 0 0 0 0 0 0 0 0 0 0 0 0 0 0 0 0 0 0 0 0 0 0 0 0 0 0 0 0 0 0 0 0 0 0 0 0 7
0 0 0 0 0 0 0 0 0 0 0 0 0 0 0 0 0 0 0 0 0 0 0 0 0 0 0 0 0 0 0 0 0 0 0 0 0 0 0 0 0 0 0 16 12
0 0 0 0 0 0 0 0 0 0 0 0 0 0 0 0 0 0 0 0 0 0 0 0 0 0 0 0 0 0 0 0 0 0 0 0 0 0 0 0 0 0 0 0 0
0 0 0 0 0 0 0 0 0 0 0 0 0 0 0 0 0 0 0 0 0 0 0 0 0 0 0 0 0 0 0 0 0 0 0 0 0 0 0 0 0 0 0 0 0
0 0 0 0 0 0 0 0 0 0 0 0 0 0 0 0 0 0 0 0 0 0 0 0 0 0 0 0 0 0 0 0 0 0 0 0 0 0 0 0 18 18 6 9 1
0 0 0 0 0 0 0 0 0 0 0 0 0 0 0 0 0 0 0 0 0 0 0 0 0 0 0 0 0 0 0 0 0 0 0 0 0 0 0 3 35 69 29 20 0
0 0 0 0 0 0 0 0 0 0 0 0 0 0 0 0 0 0 0 0 0 0 0 0 0 0 0 0 0 0 0 0 0 0 0 0 0 0 0 0 0 7 12 4 1
0 0 0 0 0 0 0 0 0 0 0 0 0 0 0 0 0 0 0 0 0 0 0 0 0 0 0 0 0 0 0 0 0 0 0 0 0 0 0 0 0 1 7 0 0
0 0 0 0 0 0 0 0 0 0 0 0 0 0 0 0 0 0 0 0 0 0 0 0 0 0 0 0 0 0 0 0 0 0 0 0 0 0 0 0 0 15 13 0 0
0 0 0 0 0 0 0 1 0 0 0 0 0 0 0 0 0 0 0 0 0 0 0 0 0 0 0 0 0 0 0 0 0 0 0 0 0 0 0 0 4 0 45 13 139
CIN
-0 -0 -0 -0 -0 -0 -0 -0 -0 -0 -0 -0 -0 -0 -0 -0 -0 -0 -0 -0 -0 -0 -604 -0 -0 -0 -440 -297 -240 -246 -128 -64 -85 -112 -136 -76 -128 -153 -115 -136 -159 -178 -48 -0 -281
-0 -0 -0 -0 -0 -0 -0 -0 -0 -0 -0 -0 -0 -0 -0 -0 -0 -0 -0 -0 -0 -0 -0 -0 -0 -0 -373 -131 -257 -220 -141 -59 -83 -87 -93 -63 -98 -160 -154 -0 -131 -149 -0 -0 -222
-0 -0 -0 -0 -0 -0 -0 -0 -0 -0 -0 -0 -0 -0 -0 -0 -0 -0 -0 -0 -0 -0 -0 -0 -0 -0 -0 -0 -161 -214 -16 -43 -58 -47 -66 -77 -69 -153 -137 -0 -125 -0 -0 -289 -226
-0 -0 -0 -0 -0 -0 -0 -0 -0 -0 -0 -0 -0 -0 -0 -0 -0 -0 -0 -0 -0 -0 -0 -0 -0 -0 -0 -0 -0 -0 -0 -0 -0 -157 -74 -68 -95 -132 -124 -77 -173 -0 -0 -152 -242
-0 -0 -0 -0 -0 -0 -0 -0 -0 -0 -0 -0 -0 -0 -0 -0 -0 -0 -0 -0 -0 -0 -0 -0 -0 -0 -0 -0 -0 -0 -0 -0 -0 -0 -52 -65 -86 -108 -135 -143 -152 -0 -0 -0 -218
-0 -0 -0 -0 -0 -0 -0 -0 -0 -0 -0 -0 -0 -0 -0 -0 -0 -0 -0 -0 -0 -0 -0 -0 -0 -0 -0 -0 -0 -0 -0 -0 -0 -0 -20 -56 -75 -106 -153 -231 -56 -0 -0 -233 -211
-0 -0 -0 -0 -0 -0 -0 -0 -0 -0 -0 -0 -0 -0 -0 -0 -0 -0 -0 -0 -0 -0 -0 -0 -0 -0 -0 -0 -0 -0 -0 -0 -0 -0 -198 -76 -67 -82 -176 -259 -261 -0 -0 -219 -194
-0 -0 -0 -0 -0 -0 -0 -0 -0 -0 -0 -0 -0 -0 -0 -0 -0 -0 -0 -0 -0 -0 -0 -0 -0 -0 -0 -0 -0 -0 -0 -0 -0 -170 -177 -129 -81 -150 -229 -271 -256 -299 -0 -217 -184
-0 -0 -0 -0 -0 -0 -0 -0 -0 -0 -0 -0 -0 -0 -0 -0 -0 -0 -0 -0 -0 -0 -0 -0 -0 -0 -0 -0 -0 -0 -0 -0 -0 -125 -136 -100 -81 -193 -284 -263 -234 -271 -261 -208 -174
-0 -0 -0 -0 -0 -0 -0 -0 -0 -0 -0 -0 -0 -0 -0 -0 -0 -0 -0 -0 -0 -0 -0 -0 -0 -0 -0 -0 -0 -0 -0 -0 -0 -127 -82 -74 -88 -226 -277 -255 -233 -227 -227 -227 -237
-0 -0 -0 -0 -0 -0 -0 -0 -0 -0 -0 -0 -0 -0 -0 -0 -0 -0 -0 -0 -0 -0 -0 -0 -0 -0 -0 -0 -0 -0 -0 -0 -0 -0 -89 -63 -85 -162 -275 -258 -234 -207 -0 -1 -0
-0 -0 -0 -0 -0 -0 -0 -0 -0 -0 -0 -0 -0 -0 -0 -0 -0 -0 -0 -0 -0 -0 -0 -0 -0 -0 -0 -0 -0 -0 -0 -0 -0 -186 -132 -153 -91 -196 -244 -256 -249 -234 -272 -26 -0
-0 -0 -0 -0 -0 -0 -0 -0 -0 -0 -0 -0 -0 -0 -0 -0 -0 -0 -0 -0 -0 -0 -0 -0 -0 -0 -0 -0 -0 -0 -0 -0 -0 -46 -154 -116 -148 -164 -208 -227 -245 -255 -255 -272 -0
-0 -0 -0 -0 -0 -0 -0 -0 -0 -0 -0 -0 -0 -0 -0 -0 -0 -0 -0 -0 -0 -0 -0 -0 -0 -0 -0 -0 -0 -0 -0 -0 -0 -0 -22 -115 -82 -147 -190 -195 -254 -263 -279 -311 -300
-0 -0 -0 -0 -0 -0 -0 -0 -0 -0 -0 -0 -0 -0 -0 -0 -0 -0 -0 -0 -0 -0 -0 -0 -0 -0 -0 -0 -0 -0 -0 -0 -0 -0 -0 -60 -53 -164 -295 -263 -267 -282 -292 -338 -354
-0 -0 -0 -0 -0 -0 -0 -0 -0 -0 -0 -0 -0 -0 -0 -0 -0 -0 -0 -0 -0 -0 -0 -0 -0 -0 -0 -0 -0 -0 -0 -0 -0 -0 -0 -0 -147 -0 -305 -278 -0 -0 -278 -319 -333
-0 -0 -0 -0 -0 -0 -0 -0 -0 -0 -0 -0 -0 -0 -0 -0 -0 -0 -0 -0 -0 -0 -0 -0 -0 -0 -0 -0 -0 -0 -0 -0 -0 -0 -0 -0 -0 -0 -34 -137 -0 -0 -0 -134 -341
-0 -0 -0 -0 -0 -0 -0 -0 -0 -0 -0 -0 -0 -0 -0 -0 -0 -0 -0 -0 -0 -0 -0 -0 -0 -0 -0 -0 -0 -0 -0 -0 -0 -0 -0 -0 -0 -0 -0 -0 -0 -0 -0 -0 -339
-0 -0 -0 -0 -0 -0 -0 -0 -0 -0 -0 -0 -0 -0 -0 -0 -0 -0 -0 -0 -0 -0 -0 -0 -0 -0 -0 -0 -0 -0 -0 -0 -0 -0 -0 -0 -0 -0 -0 -0 -0 -0 -0 -370 -347
-0 -0 -0 -0 -0 -0 -0 -0 -0 -0 -0 -0 -0 -0 -0 -0 -0 -0 -0 -0 -0 -0 -0 -0 -0 -0 -0 -0 -0 -0 -0 -0 -0 -0 -0 -0 -0 -0 -0 -0 -0 -0 -33 -0 -0
-0 -0 -0 -0 -0 -0 -0 -0 -0 -0 -0 -0 -0 -0 -0 -0 -0 -0 -0 -0 -0 -0 -0 -0 -0 -0 -0 -0 -0 -0 -0 -0 -0 -0 -0 -0 -0 -0 -0 -0 -0 -0 -25 -72 -0
-0 -0 -0 -0 -0 -0 -0 -0 -0 -0 -0 -0 -0 -0 -0 -0 -0 -0 -0 -0 -0 -0 -0 -0 -0 -0 -0 -0 -0 -0 -0 -0 -0 -0 -0 -0 -0 -0 -0 -0 -276 -226 -294 -331 -323
-0 -0 -0 -0 -0 -0 -0 -0 -0 -0 -0 -0 -0 -0 -0 -0 -0 -0 -0 -0 -0 -0 -0 -0 -0 -0 -0 -0 -0 -0 -0 -0 -0 -0 -0 -0 -0 -0 -0 -227 -273 -257 -308 -325 -0
-0 -0 -0 -0 -0 -0 -0 -0 -0 -0 -0 -0 -0 -0 -0 -0 -0 -0 -0 -0 -0 -0 -0 -0 -0 -0 -0 -0 -0 -0 -0 -0 -0 -0 -0 -0 -0 -0 -0 -0 -0 -139 -331 -320 -211
-0 -0 -0 -0 -0 -0 -0 -0 -0 -0 -0 -0 -0 -0 -0 -0 -0 -0 -0 -0 -0 -0 -0 -0 -0 -0 -0 -0 -0 -0 -0 -0 -0 -0 -0 -0 -0 -0 -0 -0 -0 -62 -52 -0 -0
-0 -0 -0 -0 -0 -0 -0 -0 -0 -0 -0 -0 -0 -0 -0 -0 -0 -0 -0 -0 -0 -0 -0 -0 -0 -0 -0 -0 -0 -0 -0 -0 -0 -0 -0 -0 -0 -0 -0 -0 -0 -213 -221 -0 -0
-0 -0 -0 -0 -0 -0 -1 -1 -0 -0 -0 -0 -0 -0 -0 -0 -0 -0 -0 -0 -0 -0 -0 -0 -0 -0 -0 -0 -0 -0 -0 -0 -0 -0 -0 -0 -0 -0 -0 -0 -110 -0 -215 -137 -145
Wind_Speed
31 32 32 33 33 34 34 34 34 33 33 32 32 32 31 31 31 26 31 21 11 4 2 5 20 15 12 17 16 15 14 15 14 12 16 20 17 22 18 21 20 22 19 27 31
34 35 35 35 36 36 36 36 36 35 34 33 32 31 31 31 29 32 31 20 13 7 6 6 15 7 19 16 15 18 13 16 16 18 8 17 22 22 18 21 20 16 21 28 28
36 37 37 38 38 38 38 38 37 37 36 34 33 31 31 29 27 19 18 15 7 6 10 9 15 13 22 18 16 15 20 17 16 16 19 11 22 21 22 20 20 21 26 27 29
38 39 39 40 40 40 40 40 39 38 36 35 33 32 30 23 22 16 15 13 5 9 11 11 18 20 20 21 22 24 26 25 22 17 11 17 26 21 21 17 22 23 27 27 28
40 40 41 42 42 43 43 42 41 39 37 35 33 30 25 25 27 25 23 18 6 7 10 12 18 21 23 23 21 28 25 25 23 21 6 19 24 21 21 19 23 25 25 26 27
40 41 42 43 44 44 44 44 42 40 39 35 30 25 24 31 20 22 16 14 15 10 16 15 17 22 23 27 24 20 25 26 24 26 15 13 23 22 21 22 24 24 26 28 28
41 42 43 44 44 45 45 44 42 41 37 31 23 20 26 32 19 24 24 21 19 17 19 23 21 17 19 26 25 25 25 26 23 10 10 10 6 24 22 24 24 24 27 29 31
42 43 44 45 45 46 46 43 42 37 30 22 16 20 30 23 25 30 26 23 22 22 25 20 20 26 23 23 23 24 20 22 17 2 5 6 5 24 24 25 25 24 27 30 32
41 42 43 43 44 45 43 42 39 27 20 13 20 22 31 25 24 22 19 20 19 25 23 16 15 23 22 23 26 21 18 17 18 12 9 19 12 7 27 26 25 25 27 31 32
41 41 39 37 38 37 37 38 27 17 18 19 21 25 25 21 21 23 19 20 19 18 21 18 19 21 23 19 26 23 19 18 17 22 17 22 15 7 26 26 24 26 28 31 32
40 40 38 35 35 33 33 24 25 22 23 28 30 31 33 27 24 19 18 20 21 21 23 20 21 23 23 23 26 22 21 21 18 19 24 25 14 11 24 26 25 25 28 32 32
39 38 37 35 34 24 22 22 22 22 31 33 35 36 34 27 28 28 18 20 25 29 26 26 32 30 24 24 25 26 28 24 21 17 22 26 22 16 26 26 27 25 26 29 33
38 39 39 38 31 20 19 20 24 25 26 27 21 22 22 20 29 33 21 21 25 28 30 32 30 29 29 29 27 25 31 27 22 18 16 14 21 23 35 34 32 30 28 26 29
38 38 39 38 20 29 12 22 30 19 23 21 19 18 16 16 24 27 27 24 25 31 27 33 34 30 35 34 27 30 26 27 27 24 25 22 27 28 31 37 34 33 31 30 30
36 36 35 32 25 19 17 30 28 16 24 20 17 15 22 19 20 17 22 27 33 27 27 31 29 35 36 40 30 26 24 29 31 31 27 31 29 31 29 39 36 34 34 32 32
38 35 35 24 18 14 25 28 15 14 20 19 19 22 20 19 21 21 19 21 27 29 30 35 26 28 39 36 33 29 32 27 25 27 34 34 35 35 27 40 38 37 34 35 30
36 35 32 20 19 22 27 17 14 10 22 19 22 24 18 20 17 19 20 23 26 35 39 35 39 33 26 34 33 31 26 29 34 32 40 29 33 39 32 27 39 35 31 34 31
37 32 21 11 17 24 22 16 12 13 16 20 22 20 17 18 18 19 16 19 20 26 33 39 38 39 30 36 30 34 31 27 31 33 38 25 37 34 40 31 37 33 30 28 31
35 26 20 18 17 19 21 17 16 11 17 22 21 17 20 20 19 18 14 14 16 19 30 32 38 31 35 29 31 29 30 34 28 27 29 34 34 31 29 31 28 20 10 28 31
31 24 18 21 15 21 20 18 16 19 22 18 15 18 20 22 20 19 18 15 19 20 24 27 35 33 31 28 32 33 23 29 29 36 37 33 31 29 24 34 31 37 34 39 28
25 19 17 25 18 22 20 17 17 21 20 16 16 17 16 21 21 22 22 19 18 21 18 24 30 32 30 35 36 33 33 30 28 31 37 36 36 25 28 30 33 37 37 31 13
24 20 23 22 21 20 20 18 19 19 19 18 18 19 21 23 23 23 25 21 20 20 23 23 29 37 35 29 30 33 31 34 37 35 33 36 38 22 29 30 31 35 34 25 21
25 20 23 20 21 21 20 20 20 17 19 18 19 21 22 24 27 26 24 25 24 24 24 25 28 36 33 28 27 30 29 28 31 33 40 39 42 26 27 21 24 28 16 17 30
24 22 22 21 20 20 22 21 20 20 18 19 21 22 26 27 26 31 34 27 29 29 27 26 29 32 36 35 32 36 34 30 30 37 39 43 35 29 26 26 25 24 22 30 5
25 23 20 23 23 24 20 19 20 23 22 23 22 23 25 30 33 32 33 37 32 27 27 27 34 32 34 32 33 36 37 34 33 34 38 38 37 32 25 21 25 29 25 28 37
23 23 22 21 21 22 22 23 24 22 22 24 21 20 22 27 31 41 37 35 35 31 29 29 34 31 35 31 32 35 35 34 34 34 35 37 36 29 27 24 16 12 20 29 38
22 21 21 23 23 20 20 20 21 21 15 18 19 20 26 28 31 33 35 37 37 36 35 33 32 32 37 32 32 35 31 30 30 27 31 39 33 25 25 22 13 5 10 9 14
Wind_Direction
321 319 319 318 317 315 312 309 307 305 303 302 302 302 301 297 289 294 268 285 304 152 356 307 255 268 272 259 259 259 264 241 255 296 267 116 99 136 126 107 134 136 120 129 129
324 322 320 318 317 315 312 310 307 304 302 300 300 299 302 301 298 269 256 285 282 162 258 269 266 279 258 270 268 258 284 238 230 214 336 113 126 122 111 110 124 83 97 123 128
325 322 321 319 316 313 311 310 307 304 301 299 298 298 299 302 301 299 292 290 269 188 261 261 270 265 253 259 258 268 254 256 225 252 135 102 130 143 98 112 137 111 122 129 135
327 323 322 320 316 314 312 308 306 303 301 299 299 296 296 310 292 300 299 313 295 248 248 251 256 253 258 249 256 254 252 248 269 292 111 123 144 133 125 135 127 124 126 130 137
326 324 322 320 317 313 310 309 305 302 302 301 301 301 305 294 280 280 279 293 294 250 232 243 251 250 252 257 263 249 256 266 238 274 113 129 148 141 155 128 109 117 126 132 137
325 324 322 320 319 315 310 307 303 302 298 300 303 305 300 280 294 285 293 282 271 257 251 245 258 252 259 253 257 270 265 269 251 239 143 135 159 134 163 111 114 122 132 140 144
329 329 325 322 319 316 312 307 304 302 299 299 305 305 291 274 292 277 276 268 263 259 256 248 248 255 261 253 260 265 272 275 250 99 125 122 93 175 135 129 127 128 138 145 156
332 331 329 324 320 316 312 307 305 306 307 308 305 303 284 294 283 270 266 265 258 255 247 257 248 250 257 264 264 258 275 274 261 194 137 216 87 215 138 136 139 135 147 157 164
336 334 330 322 319 317 311 307 308 318 325 327 304 295 281 289 278 278 270 263 260 251 249 261 243 247 253 257 249 257 261 267 260 245 155 250 280 99 146 144 140 147 152 165 175
327 323 314 308 307 304 303 306 326 336 329 316 302 288 282 284 282 278 277 257 260 255 248 248 247 243 247 246 239 244 253 263 264 241 246 248 266 121 150 152 146 153 163 171 176
321 319 310 304 304 300 326 353 332 315 310 294 286 278 274 282 282 269 274 258 252 253 243 245 239 236 238 246 244 248 252 257 262 266 242 244 254 148 152 156 157 158 170 180 180
317 314 310 305 301 286 11 18 2 337 302 296 283 274 271 278 267 260 271 255 245 243 243 245 240 240 244 245 245 245 245 251 265 276 251 244 251 246 160 165 166 161 164 175 187
315 314 312 308 297 7 5 11 358 336 314 308 310 291 287 268 258 253 259 255 248 241 241 242 243 241 241 242 241 244 239 242 253 264 270 245 252 243 221 212 194 187 181 171 174
314 312 313 311 348 322 27 349 315 352 318 308 313 308 305 290 268 260 254 251 251 242 244 245 240 241 238 238 240 241 243 247 251 254 250 252 249 244 237 206 200 197 191 187 182
309 309 308 308 336 0 6 306 313 355 296 315 319 342 304 282 280 274 261 246 242 243 241 241 243 238 238 234 237 240 247 248 249 250 255 245 250 246 245 225 203 198 195 193 189
310 305 305 341 356 15 341 326 3 349 304 316 317 301 308 294 280 280 267 254 246 244 246 242 249 244 237 236 238 242 246 251 254 254 249 246 244 250 250 210 208 207 197 196 187
305 300 299 342 351 350 339 359 356 354 321 311 296 294 302 291 285 284 262 246 240 235 238 242 240 243 241 234 236 234 236 241 241 245 240 251 247 237 253 202 207 196 191 191 186
306 299 355 31 4 347 352 351 359 15 333 313 306 307 292 302 282 285 270 252 254 247 240 237 238 235 237 234 235 231 231 237 238 241 239 252 235 250 222 250 225 238 196 185 186
312 335 358 356 11 12 350 336 348 27 344 305 299 313 283 280 284 277 278 269 262 264 240 239 238 243 236 237 231 233 233 238 248 251 247 245 253 263 255 247 248 265 186 184 187
335 337 4 345 21 360 348 337 344 348 311 316 311 305 289 280 280 279 265 285 267 277 258 250 239 240 233 236 236 235 235 234 240 237 239 243 248 247 261 221 258 232 199 223 248
352 354 359 340 2 346 348 351 349 333 312 329 312 300 303 289 284 272 265 266 288 278 267 259 243 238 234 233 230 231 235 240 243 245 238 238 239 252 250 236 228 222 218 241 187
351 353 333 344 341 348 349 349 348 342 331 316 306 295 292 291 287 278 262 264 290 289 264 265 245 237 237 237 237 236 237 238 239 238 243 240 239 253 253 250 236 214 235 255 257
352 357 348 354 342 341 342 340 345 342 336 328 310 301 298 291 281 275 274 275 283 277 267 268 244 236 235 234 236 236 236 243 243 242 237 235 234 256 267 275 259 250 268 260 242
1 356 349 358 360 348 338 336 331 334 330 324 313 307 298 290 282 272 269 272 279 272 269 261 245 238 231 235 238 234 238 243 242 238 237 235 239 248 257 265 260 260 259 193 177
8 0 4 347 340 338 343 340 331 323 323 323 314 308 300 289 280 271 268 266 269 266 262 252 242 243 243 244 241 238 238 242 242 242 238 239 239 245 254 269 268 252 260 249 208
19 12 8 359 354 347 343 335 328 325 324 319 314 311 304 290 276 267 265 261 254 257 253 252 241 246 240 241 242 239 240 242 245 245 245 242 242 246 258 276 287 277 256 242 222
21 20 13 1 358 357 350 345 341 336 329 338 326 312 299 291 283 273 267 258 251 251 245 243 239 239 233 240 240 236 242 243 244 248 248 238 240 243 255 262 261 250 257 265 254